GW4275 Weather Reports


time (UTC)temp
F
wind
direction
speed
knots
gust
knots
rain 1hr
in
rain 24hr
in
rain mn
in
humidity
%
barometer
mb
20260509162014 53 141 0.0 2.6 0.01 0.12 0.12 92 1009.1
20260509161520 53 149 0.9 1.7 0.00 0.11 0.11 92 1009.1
20260509161007 53 311 0.0 1.7 0.00 0.11 0.11 92 1009.2
20260509160508 53 194 0.0 1.7 0.00 0.11 0.11 93 1009.3
20260509160024 52 161 0.0 1.7 0.00 0.11 0.11 93 1009.4
20260509155510 52 175 0.0 1.7 0.00 0.11 0.11 93 1009.5
20260509155016 52 132 0.0 1.7 0.00 0.11 0.11 93 1009.5
20260509154528 52 119 0.0 1.7 0.00 0.11 0.11 93 1009.7
20260509153510 52 115 0.0 2.6 0.00 0.11 0.11 93 1009.7
20260509153032 52 50 0.9 2.6 0.00 0.11 0.11 93 1009.7
20260509152007 51 157 0.0 1.7 0.00 0.11 0.11 93 1009.6
20260509151520 51 169 0.0 1.7 0.00 0.11 0.11 93 1009.7
20260509151006 51 171 0.0 1.7 0.00 0.11 0.11 93 1009.8
20260509150503 51 210 0.0 1.7 0.00 0.11 0.11 93 1009.8
20260509150003 51 309 0.0 1.7 0.00 0.12 0.11 93 1009.8
20260509145503 51 186 0.0 1.7 0.00 0.12 0.11 93 1009.7
20260509145003 51 190 0.9 3.5 0.00 0.12 0.11 93 1009.7
20260509144506 51 315 0.9 2.6 0.00 0.12 0.11 93 1009.8
20260509144004 51 154 0.0 1.7 0.01 0.12 0.11 93 1009.9
20260509143504 50 158 0.9 1.7 0.01 0.13 0.11 93 1009.9
20260509143004 50 161 0.0 1.7 0.01 0.13 0.11 92 1009.8
20260509142503 50 178 0.0 1.7 0.02 0.13 0.11 92 1009.8
20260509142007 50 165 0.0 1.7 0.02 0.13 0.11 92 1009.9
20260509141518 50 84 0.0 1.7 0.04 0.13 0.11 92 1010.0
20260509141002 50 164 0.0 1.7 0.04 0.13 0.11 92 1009.9
20260509140504 50 155 0.9 1.7 0.05 0.13 0.11 92 1010.0
20260509140007 50 61 0.9 1.7 0.05 0.13 0.11 92 1009.9
20260509135506 50 134 0.0 1.7 0.05 0.14 0.11 92 1009.9
20260509135004 50 153 0.0 1.7 0.06 0.14 0.11 92 1010.0
20260509134507 49 138 0.0 1.7 0.06 0.15 0.11 92 1010.0
20260509134001 49 156 0.0 1.7 0.05 0.14 0.10 92 1010.1
20260509133504 49 172 0.0 1.7 0.05 0.15 0.10 92 1010.2
20260509133007 49 140 0.0 1.7 0.06 0.15 0.10 92 1010.2
20260509131514 49 220 0.0 1.7 0.04 0.15 0.07 91 1010.6
20260509131004 49 220 0.0 1.7 0.04 0.16 0.07 91 1010.5
20260509130504 49 168 0.0 2.6 0.04 0.17 0.06 91 1010.5
20260509125504 49 166 0.0 2.6 0.05 0.19 0.06 91 1010.7
20260509125003 49 179 0.0 1.7 0.04 0.19 0.05 91 1010.7
20260509124507 49 179 0.0 1.7 0.05 0.19 0.05 91 1010.6
20260509124004 48 184 0.0 1.7 0.05 0.19 0.05 91 1010.6
20260509123504 48 184 0.0 1.7 0.05 0.19 0.05 91 1010.5
20260509123017 48 183 0.0 1.7 0.04 0.18 0.04 90 1010.5
20260509122504 48 183 0.0 1.7 0.04 0.18 0.04 90 1010.6
20260509122007 48 187 0.0 1.7 0.04 0.18 0.04 90 1010.6
20260509121514 48 187 0.0 1.7 0.03 0.17 0.03 90 1010.6
20260509121004 48 187 0.0 1.7 0.03 0.17 0.03 90 1010.7
20260509120010 48 200 0.0 1.7 0.02 0.16 0.02 90 1010.9
20260509115004 48 200 0.0 1.7 0.01 0.15 0.01 90 1011.1
20260509114514 48 200 0.0 1.7 0.00 0.14 0.00 90 1011.0
20260509114006 48 200 0.0 0.0 0.00 0.14 0.00 90 1011.0
20260509113504 0 0.0 0.0 0.00 0.14 0.00 1011.0
20260509113016 0 0.0 0.0 0.00 0.14 0.00 1010.9
20260509112505 0 0.0 0.0 0.00 0.14 0.00 1010.9
20260509112004 0 0.0 0.0 0.00 0.14 0.00 1011.0
20260509111514 0 0.0 0.0 0.00 0.14 0.00 1010.9
20260509111007 0 0.0 0.0 0.00 0.14 0.00 1010.8
20260509110504 0 0.0 0.0 0.00 0.14 0.00 1010.8
20260509110024 0 0.0 0.0 0.00 0.14 0.00 1010.8
20260509105505 0 0.0 0.0 0.00 0.14 0.00 1010.7
20260509105010 0 0.0 0.0 0.00 0.14 0.00 1010.7
20260509104516 0 0.0 0.0 0.00 0.14 0.00 1010.6
20260509104006 0 0.0 0.0 0.00 0.14 0.00 1010.7
20260509103503 0 0.0 0.0 0.00 0.14 0.00 1010.6
20260509103017 0 0.0 0.0 0.00 0.14 0.00 1010.6
20260509102506 0 0.0 0.0 0.00 0.14 0.00 1010.6
20260509102006 0 0.0 0.0 0.00 0.14 0.00 1010.5
20260509101521 0 0.0 0.0 0.00 0.14 0.00 1010.4
20260509101005 0 0.0 0.0 0.00 0.14 0.00 1010.4
20260509100503 0 0.0 0.0 0.00 0.14 0.00 1010.4
20260509100019 0 0.0 0.0 0.00 0.14 0.00 1010.4
20260509095507 0 0.0 0.0 0.00 0.14 0.00 1010.4
20260509095007 0 0.0 0.0 0.00 0.14 0.00 1010.4
20260509094521 0 0.0 0.0 0.00 0.14 0.00 1010.4
20260509094006 0 0.0 0.0 0.00 0.14 0.00 1010.4
20260509093507 0 0.0 0.0 0.00 0.14 0.00 1010.4
20260509093025 0 0.0 0.0 0.00 0.14 0.00 1010.3
20260509092506 0 0.0 0.0 0.00 0.14 0.00 1010.4
20260509092007 0 0.0 0.0 0.00 0.14 0.00 1010.4
20260509091520 0 0.0 0.0 0.00 0.14 0.00 1010.3
20260509091008 0 0.0 0.0 0.00 0.14 0.00 1010.4
20260509090507 0 0.0 0.0 0.00 0.14 0.00 1010.4
20260509090026 0 0.0 0.0 0.00 0.14 0.00 1010.4
20260509085505 0 0.0 0.0 0.00 0.14 0.00 1010.4
20260509085004 0 0.0 0.0 0.00 0.14 0.00 1010.5
20260509084520 0 0.0 0.0 0.00 0.14 0.00 1010.7
20260509084007 0 0.0 0.0 0.00 0.14 0.00 1010.7
20260509083019 0 0.0 0.0 0.00 0.14 0.00 1010.6
20260509082506 0 0.0 0.0 0.00 0.14 0.00 1010.7
20260509082007 0 0.0 0.0 0.00 0.14 0.00 1010.6
20260509081010 0 0.0 0.0 0.00 0.14 0.00 1010.7
20260509080507 0 0.0 0.0 0.00 0.14 0.00 1011.0
20260509080022 0 0.0 0.0 0.00 0.14 0.00 1011.0
20260509075510 0 0.0 0.0 0.00 0.14 0.00 1011.0
20260509075007 0 0.0 0.0 0.00 0.14 0.00 1011.1
20260509074520 0 0.0 0.9 0.00 0.14 0.00 1011.1
20260509074008 44 352 0.0 1.7 0.00 0.14 0.00 1011.1
20260509073507 44 352 0.0 1.7 0.00 0.14 0.00 80 1011.2
20260509073021 44 352 0.0 1.7 0.00 0.14 0.00 79 1011.2
20260509072002 44 352 0.0 1.7 0.00 0.14 0.00 79 1011.4
20260509071504 44 352 0.0 1.7 0.00 0.14 0.00 79 1011.4
20260509071003 44 352 0.0 1.7 0.00 0.14 0.00 78 1011.4
20260509070503 44 352 0.0 1.7 0.00 0.14 0.00 78 1011.2
20260509070009 44 352 0.0 1.7 0.00 0.14 0.00 78 1011.3
20260509065509 44 352 0.0 1.7 0.00 0.14 0.00 77 1011.5
20260509065002 44 352 0.0 0.0 0.00 0.14 0.00 77 1011.5
20260509064516 43 352 0.0 0.0 0.00 0.14 0.00 77 1011.4
20260509063508 43 352 0.0 0.9 0.00 0.14 0.00 77 1011.7
20260509063020 43 352 0.0 1.7 0.00 0.14 0.00 76 1011.7
20260509062507 43 352 0.0 1.7 0.00 0.14 0.00 76 1011.8
20260509062010 43 352 0.0 1.7 0.00 0.14 0.00 77 1011.9
20260509061523 43 352 0.0 1.7 0.00 0.14 0.00 77 1011.9
20260509061007 43 352 0.0 1.7 0.00 0.14 0.00 77 1011.7
20260509060507 43 352 0.0 1.7 0.00 0.14 0.00 76 1011.9
20260509060007 43 352 0.0 0.0 0.00 0.14 0.00 76 1012.2
20260509055504 43 352 0.0 0.0 0.00 0.14 0.00 76 1012.2
20260509054521 43 352 0.0 0.0 0.00 0.14 0.00 76 1012.3
20260509054003 43 352 0.0 0.0 0.00 0.14 0.00 75 1012.3
20260509053509 43 352 0.0 0.0 0.00 0.14 0.00 75 1012.3
20260509053037 43 352 0.0 0.0 0.00 0.14 0.00 75 1012.2
20260509052011 43 352 0.0 0.0 0.00 0.14 0.00 75 1012.3
20260509051521 43 352 0.0 0.0 0.00 0.14 0.00 75 1012.2
20260509051007 43 352 0.0 1.7 0.00 0.14 0.00 75 1012.3
20260509050037 43 352 0.0 0.0 0.00 0.14 0.00 75 1012.3
20260509045507 43 352 0.0 0.0 0.00 0.14 0.00 74 1012.3
20260509045008 43 352 0.0 0.0 0.00 0.14 0.00 74 1012.3
20260509044515 43 352 0.0 1.7 0.00 0.14 0.00 74 1012.4
20260509043504 44 352 0.0 1.7 0.00 0.14 0.00 73 1012.4
20260509043016 44 352 0.0 0.9 0.00 0.14 0.00 72 1012.5
20260509041519 45 352 0.0 0.0 0.00 0.14 0.00 71 1012.4
20260509041006 45 352 0.0 0.9 0.00 0.14 0.00 71 1012.5
20260509040513 45 352 0.0 1.7 0.00 0.14 0.00 71 1012.5
20260509040021 45 352 0.0 1.7 0.00 0.14 0.00 70 1012.5
20260509035507 45 352 0.0 0.0 0.00 0.14 0.14 69 1012.6
20260509035009 46 352 0.0 0.0 0.00 0.14 0.14 69 1012.6
20260509034524 46 352 0.0 1.7 0.00 0.14 0.14 68 1012.5
20260509034013 46 352 0.0 1.7 0.00 0.14 0.14 68 1012.6
20260509033508 46 352 0.0 1.7 0.00 0.14 0.14 67 1012.6
20260509033026 46 352 0.0 1.7 0.00 0.14 0.14 67 1012.5
20260509032504 46 352 0.0 1.7 0.00 0.14 0.14 67 1012.5
20260509031518 47 352 0.0 0.0 0.00 0.14 0.14 66 1012.6
20260509030507 47 352 0.0 0.0 0.00 0.14 0.14 67 1012.6
20260509030027 47 352 0.0 0.0 0.00 0.14 0.14 68 1012.7
20260509025507 47 352 0.0 1.7 0.00 0.14 0.14 68 1012.7
20260509024522 47 352 0.0 0.0 0.00 0.14 0.14 68 1012.7
20260509023508 47 352 0.0 0.0 0.00 0.14 0.14 68 1012.9
20260509023035 47 352 0.0 0.0 0.00 0.14 0.14 68 1012.8
20260509022511 47 352 0.0 1.7 0.00 0.14 0.14 69 1012.9
20260509022011 47 352 0.0 1.7 0.00 0.14 0.14 69 1012.9
20260509021525 47 352 0.0 1.7 0.00 0.14 0.14 68 1012.9
20260509020506 47 352 0.0 0.0 0.00 0.14 0.14 68 1012.8
20260509020016 47 352 0.0 1.7 0.00 0.14 0.14 68 1012.9
20260509015503 47 352 0.0 1.7 0.00 0.14 0.14 67 1012.9
20260509015003 47 352 0.0 1.7 0.00 0.14 0.14 67 1012.8
20260509014503 48 352 0.0 0.0 0.00 0.14 0.14 66 1012.8
20260509014002 48 352 0.0 1.7 0.00 0.14 0.14 65 1012.7
20260509013503 48 352 0.0 1.7 0.00 0.14 0.14 65 1012.7
20260509013007 48 352 0.0 1.7 0.00 0.14 0.14 64 1012.5
20260509012503 48 352 0.0 1.7 0.00 0.14 0.14 64 1012.5
20260509011508 49 352 0.0 1.7 0.00 0.14 0.14 63 1012.3
20260509010017 50 352 0.0 1.7 0.00 0.14 0.14 61 1012.2
20260509004518 51 352 0.0 1.7 0.00 0.14 0.14 58 1011.9
20260509003503 51 352 0.0 1.7 0.00 0.14 0.14 57 1011.9
20260509003004 52 284 0.0 1.7 0.00 0.14 0.14 58 1011.9
20260509002503 52 281 0.0 1.7 0.00 0.14 0.14 55 1011.8
20260509002004 52 281 0.0 1.7 0.00 0.14 0.14 53 1011.9
20260509001507 53 281 0.0 1.7 0.00 0.14 0.14 53 1011.8
20260509000013 54 281 0.0 0.0 0.00 0.14 0.14 53 1011.7
20260508234518 54 281 0.0 1.7 0.00 0.14 0.14 52 1011.6
20260508234006 54 281 0.0 1.7 0.00 0.14 0.14 52 1011.4
20260508232002 55 279 0.0 0.9 0.00 0.14 0.14 48 1011.3
20260508231508 55 279 0.0 0.9 0.00 0.14 0.14 51 1011.2
20260508231003 55 279 0.0 1.7 0.00 0.14 0.14 49 1011.2
20260508230504 55 279 0.0 1.7 0.00 0.14 0.14 50 1011.2
20260508230009 55 291 0.0 1.7 0.00 0.14 0.14 48 1011.3
20260508224514 55 317 0.0 1.7 0.00 0.14 0.14 46 1011.4
20260508224005 55 259 0.0 1.7 0.00 0.14 0.14 48 1011.4
20260508223512 55 259 0.0 1.7 0.00 0.14 0.14 47 1011.4
20260508223019 56 254 0.0 1.7 0.00 0.14 0.14 47 1011.4
20260508220503 56 320 0.0 1.7 0.00 0.14 0.14 48 1011.2
20260508220014 56 279 0.0 1.7 0.00 0.14 0.14 47 1011.3
20260508215504 56 331 0.0 1.7 0.00 0.14 0.14 47 1011.4
20260508215007 56 335 0.0 1.7 0.00 0.14 0.14 47 1011.5
20260508212007 56 333 0.0 1.7 0.00 0.14 0.14 46 1011.7
20260508211525 56 11 0.0 1.7 0.00 0.14 0.14 47 1011.6
20260508211010 56 360 0.0 1.7 0.00 0.14 0.14 48 1011.6
20260508210507 56 20 0.0 1.7 0.00 0.14 0.14 48 1011.7
20260508210028 56 163 0.0 1.7 0.00 0.14 0.14 49 1011.7
20260508205510 56 13 0.0 1.7 0.00 0.14 0.14 48 1011.8
20260508204509 56 288 0.0 1.7 0.00 0.14 0.14 49 1011.8
20260508204002 56 42 0.0 1.7 0.00 0.14 0.14 47 1011.7
20260508203503 56 169 0.0 1.7 0.00 0.14 0.14 47 1011.8
20260508203014 56 334 0.0 1.7 0.00 0.14 0.14 47 1011.9
20260508202505 56 97 0.0 1.7 0.00 0.14 0.14 52 1012.0
20260508202004 55 329 0.0 1.7 0.00 0.14 0.14 52 1012.0
20260508201519 55 305 0.0 1.7 0.00 0.14 0.14 50 1012.1
20260508201014 55 360 0.0 1.7 0.00 0.14 0.14 52 1012.0
20260508200507 55 245 0.0 1.7 0.00 0.14 0.14 49 1012.1
20260508200021 55 24 0.0 1.7 0.00 0.14 0.14 51 1012.2
20260508195508 54 152 0.9 1.7 0.00 0.14 0.14 50 1012.2
20260508195008 54 312 0.0 1.7 0.00 0.14 0.14 50 1012.5
20260508194526 54 17 0.0 1.7 0.00 0.14 0.14 54 1012.6
20260508194009 54 336 0.9 1.7 0.00 0.14 0.14 56 1012.7
20260508193503 54 360 0.9 1.7 0.00 0.14 0.14 55 1012.7
20260508193010 53 154 0.0 1.7 0.00 0.14 0.14 53 1012.8
20260508192509 53 214 0.0 1.7 0.00 0.14 0.14 52 1012.8
20260508192008 54 211 0.0 1.7 0.00 0.14 0.14 55 1012.8
20260508191523 54 49 0.0 1.7 0.00 0.14 0.14 58 1012.8
20260508191004 53 194 0.9 1.7 0.00 0.14 0.14 55 1012.8
20260508190508 53 295 0.0 1.7 0.00 0.14 0.14 54 1012.9
20260508190034 54 352 0.0 1.7 0.00 0.14 0.14 55 1012.9
20260508185508 54 51 0.0 2.6 0.00 0.14 0.14 57 1012.9
20260508185007 53 142 0.9 2.6 0.00 0.14 0.14 60 1013.0
20260508184525 53 128 0.0 2.6 0.00 0.14 0.14 59 1013.0
20260508184008 53 160 0.9 2.6 0.00 0.14 0.14 58 1013.0
20260508183508 53 352 0.0 1.7 0.00 0.14 0.14 60 1013.2
20260508183024 53 45 0.9 1.7 0.00 0.14 0.14 57 1013.3
20260508182509 53 10 0.0 1.7 0.00 0.14 0.14 60 1013.4
20260508182003 53 137 0.0 1.7 0.00 0.14 0.14 61 1013.5
20260508181513 53 146 0.0 1.7 0.00 0.14 0.14 64 1013.5
20260508181009 53 31 0.0 1.7 0.00 0.14 0.14 65 1013.6
20260508180507 52 154 0.0 1.7 0.00 0.14 0.14 66 1013.7
20260508180023 51 239 0.0 1.7 0.00 0.14 0.14 63 1013.7
20260508175511 52 72 0.0 1.7 0.00 0.14 0.14 65 1013.8
20260508175009 51 37 0.9 1.7 0.00 0.14 0.14 64 1013.7
20260508174535 51 9 0.0 1.7 0.00 0.14 0.14 65 1013.7
20260508174007 51 299 0.0 1.7 0.00 0.14 0.14 68 1013.8
20260508173511 51 266 0.0 1.7 0.00 0.14 0.14 70 1013.7
20260508173026 50 360 0.0 1.7 0.00 0.14 0.14 69 1013.8
20260508172516 50 26 0.0 1.7 0.00 0.14 0.14 71 1013.8
20260508172009 50 55 0.0 1.7 0.00 0.14 0.14 70 1013.7
20260508171524 50 15 0.0 1.7 0.00 0.14 0.14 73 1013.8
20260508171010 50 275 0.0 1.7 0.00 0.14 0.14 72 1013.8
20260508170506 49 148 0.0 3.5 0.00 0.14 0.14 71 1014.0
20260508170014 49 149 0.9 3.5 0.00 0.14 0.14 73 1014.0
20260508165505 49 226 0.0 1.7 0.00 0.14 0.14 72 1014.1
20260508165008 50 346 0.0 1.7 0.00 0.14 0.14 72 1014.2
20260508164503 50 133 0.0 1.7 0.00 0.14 0.14 75 1014.1
20260508164002 49 198 0.0 2.6 0.00 0.14 0.14 77 1014.1